Погода в Ежихе

Россия / Кировская область     58°04′47″N   47°42′13″E
темп.,
°C
ветер,
м/с
пор.,
м/с
влажн.,
%
обл.,
%
осадки,
мм/ч
давл.,
гПа
погр.,
м
21 апреля, ср
ср2100:00+1вюв4147331 0.0 1027296
03:00+1вюв41467100 0.0 1026359
06:00+2вюв61660100 0.0 1024675
09:00+6юв7155197 0.0 10231014
12:00+3юв71776100 1.2 1022987
15:00+3юв71575100 2.3 10201024
18:00+1юв61697100 3.1 1019886
21:00+2ююв61491100 3.6 1018845
22 апреля, чт
чт2200:00+2ююв61494100 0.4 1017751
03:00+3ююв51395100 0.9 1016834
06:00+4ююз51195100 0.2 1018947
09:00+5ююз41088100 0.3 1020957
12:00+10ююз586785 0.0 10201365
15:00+8ю41085100 0.9 1019704
18:00+7ююз399067 2.6 1020478
21:00+4юз26955 2.6 1022123
23 апреля, пт
пт2300:00+3ю22955 0.0 102330
03:00+2ююв229539 0.0 102331
06:00+4ююв259217 0.0 1024150
09:00+9ю34725 0.0 1024565
12:00+12ю345844 0.0 10231479
15:00+12ююв2465100 0.0 1023265
18:00+10вюв3879100 0.0 1023255
21:00+7юв399250 0.0 1023265
24 апреля, сб
сб2400:00+6юв299587 0.0 1022286
03:00+6юв3893100 0.0 1021283
06:00+5юв3991100 0.0 1020466
09:00+8вюв467475 0.0 1018727
12:00+11вюв4560100 0.0 10161318
15:00+10вюв3566100 0.0 10141040
18:00+8в3883100 0.0 1012529
21:00+7вюв3890100 0.1 1011484
25 апреля, вс
вс2500:00+6юв3993100 0.1 1009533
03:00+6вюв4109487 0.1 1006508
06:00+5ююв4894100 1.5 1004964
09:00+4зюз4990100 5.8 1005840
12:00+8зюз586583 0.3 10061550
15:00+9юз585576 0.9 10071796
18:00+7юз496499 0.8 1008801
21:00+3ююз29841 0.8 1009195